Temp
13 14 14 14 14 13 13 13 13 13 13 12 12 12 13 13 13 13 13 12 12 11 11 10 10 11 10 10 10 10 13 14 13 13 15 14 14 14 13 13 13 13 14 14 14
13 13 13 13 14 14 14 13 13 13 13 13 13 12 12 13 13 13 13 13 12 11 11 11 10 10 11 10 10 12 13 14 14 14 13 13 13 13 13 13 13 13 13 14 14
13 13 13 14 14 14 14 14 14 14 13 13 13 13 13 12 13 13 13 13 12 12 11 11 10 10 11 10 11 11 13 13 13 12 12 12 12 12 13 13 14 14 13 14 14
13 13 14 14 14 14 14 14 14 14 13 13 13 12 12 12 15 13 13 12 12 11 11 10 9 11 11 12 10 11 12 12 12 11 11 12 12 12 12 13 13 13 13 13 13
13 14 14 14 14 14 14 14 14 14 14 13 12 12 12 11 12 13 13 12 12 11 11 10 10 10 12 11 10 10 12 11 11 10 10 10 11 12 12 12 13 13 12 12 12
13 14 14 14 14 14 14 14 15 14 14 14 13 12 11 11 13 13 12 12 11 11 11 10 9 8 9 10 10 11 10 10 10 11 11 11 12 11 13 13 13 12 12 12 12
13 14 14 14 14 15 15 15 15 15 15 14 13 12 10 12 13 12 12 11 11 11 10 9 9 8 8 10 9 9 9 12 12 12 12 11 12 12 13 13 13 13 12 12 12
14 14 14 14 14 15 15 15 15 15 15 13 12 11 11 13 12 12 11 11 11 10 10 9 8 7 8 8 10 10 10 12 14 12 12 11 13 16 14 14 14 13 13 13 13
14 14 14 14 14 15 15 15 15 15 14 12 11 11 11 12 11 12 11 10 10 10 9 8 7 8 8 10 12 11 13 13 13 12 12 12 13 15 14 13 13 14 14 14 13
14 14 14 14 14 14 14 14 14 14 12 12 10 9 11 12 12 11 11 10 9 9 8 7 8 10 11 11 13 11 12 13 12 13 12 12 12 14 14 14 13 13 14 14 13
13 13 14 14 14 14 14 13 13 12 11 14 15 13 12 12 11 10 10 9 8 8 11 9 10 11 14 13 13 12 11 12 13 14 11 13 13 14 15 14 13 13 13 13 13
13 13 13 13 14 14 13 12 11 11 10 14 12 10 11 10 10 10 9 9 9 11 9 9 10 13 10 10 10 11 11 13 13 11 11 13 13 16 15 14 13 13 14 13 12
12 12 13 13 13 13 11 11 10 9 8 11 10 10 9 9 10 10 9 9 10 10 10 12 13 10 10 11 10 12 11 13 12 11 13 11 16 16 15 13 14 14 13 12 12
11 12 12 12 12 12 11 10 10 8 11 13 10 10 9 9 11 9 9 9 10 11 11 11 10 10 10 10 11 12 12 11 10 11 12 11 14 16 16 16 15 15 15 13 12
11 11 11 11 11 10 9 9 8 8 11 12 11 9 10 10 9 9 8 8 11 11 10 13 11 10 10 11 11 13 10 11 10 11 9 12 11 17 14 16 16 16 14 12 12
10 11 10 10 9 8 8 8 8 11 11 10 10 11 11 10 10 8 8 8 8 9 10 11 9 10 11 10 10 10 11 11 10 10 10 12 12 16 16 15 16 17 14 12 12
10 10 8 8 7 7 8 8 10 11 13 11 10 11 11 12 11 10 10 10 11 11 12 12 10 9 9 10 10 10 11 12 12 11 14 10 11 15 16 15 14 14 13 12 11
9 7 6 7 7 7 7 10 10 10 9 9 10 10 11 11 11 10 10 12 10 10 11 11 12 10 9 11 12 11 12 12 11 12 13 10 11 16 15 14 12 12 12 12 12
9 7 6 7 7 7 7 9 9 8 7 8 10 11 11 10 10 11 11 9 9 9 10 11 11 10 9 10 11 10 10 10 11 9 9 12 13 15 15 14 14 14 13 13 12
8 6 6 7 7 7 9 8 7 5 4 7 8 9 9 9 10 11 11 6 5 7 7 10 9 10 10 9 9 10 11 11 10 10 10 13 12 13 11 15 15 14 14 13 13
8 6 6 7 7 7 7 5 5 4 3 5 6 7 7 6 7 9 9 3 5 6 7 7 8 10 10 11 12 10 10 10 10 11 12 12 13 15 14 14 12 13 13 13 12
7 7 6 6 6 3 5 3 2 3 2 3 4 4 4 4 6 7 6 4 3 4 4 6 7 7 10 12 9 10 11 11 11 11 11 10 11 15 13 12 13 13 12 12 12
4 4 5 7 5 4 2 3 1 2 2 2 2 1 2 3 4 4 4 2 1 3 3 5 6 7 9 9 8 9 9 9 9 9 10 10 12 13 14 14 13 11 11 11 11
3 5 2 1 -2 1 1 1 2 0 1 0 1 1 1 1 2 3 3 3 1 1 2 4 5 6 7 10 9 8 9 9 9 8 10 10 11 12 13 12 10 9 9 8 8
2 -2 -3 2 1 -0 0 1 1 0 -0 0 1 -0 -1 -0 1 1 1 1 1 1 2 3 3 5 6 6 7 6 7 7 7 7 7 9 10 11 11 7 6 7 6 6 6
-1 -2 -3 -2 -2 0 -0 -1 -1 -1 -1 0 -0 -1 -1 -1 -0 -1 -0 -0 0 1 2 2 1 2 2 4 5 5 6 7 7 7 8 8 8 10 5 5 5 6 5 5 4
-2 -3 -4 -2 -0 1 -1 -1 -1 -2 -1 -1 -1 -1 -1 -0 -1 -2 -1 -1 -1 -0 -0 -0 -0 1 2 3 3 4 6 7 7 8 7 7 7 4 4 4 3 4 4 3 3
Height
1554 1552 1550 1548 1546 1544 1543 1541 1539 1537 1536 1534 1533 1531 1530 1528 1526 1524 1522 1522 1519 1516 1515 1514 1513 1512 1511 1511 1511 1510 1507 1499 1500 1499 1493 1497 1497 1495 1494 1490 1488 1485 1483 1481 1479
1555 1552 1551 1548 1546 1543 1541 1539 1537 1535 1533 1532 1530 1528 1527 1525 1524 1521 1521 1519 1517 1515 1515 1514 1513 1512 1512 1511 1511 1509 1505 1497 1497 1497 1494 1493 1494 1493 1491 1485 1481 1480 1480 1477 1476
1555 1553 1550 1548 1545 1542 1540 1537 1535 1533 1531 1529 1527 1526 1525 1524 1522 1518 1518 1517 1516 1515 1514 1513 1511 1511 1511 1511 1510 1508 1501 1498 1496 1495 1494 1491 1488 1488 1485 1477 1476 1474 1473 1472 1472
1555 1553 1550 1547 1544 1541 1539 1537 1534 1532 1529 1527 1525 1524 1523 1523 1521 1516 1516 1516 1515 1514 1514 1512 1512 1511 1510 1508 1509 1506 1500 1499 1494 1493 1491 1488 1485 1481 1479 1469 1468 1468 1467 1464 1464
1555 1553 1550 1548 1544 1541 1538 1536 1533 1530 1527 1524 1523 1522 1521 1521 1517 1514 1514 1514 1514 1514 1513 1512 1511 1511 1508 1508 1508 1504 1498 1496 1493 1490 1487 1483 1477 1475 1468 1464 1462 1462 1460 1457 1457
1556 1553 1550 1547 1544 1541 1537 1534 1531 1528 1524 1522 1520 1520 1520 1520 1513 1513 1513 1513 1513 1512 1512 1511 1511 1510 1510 1508 1507 1501 1498 1493 1487 1483 1482 1478 1470 1471 1458 1457 1456 1455 1451 1450 1450
1555 1552 1549 1546 1543 1539 1536 1532 1529 1525 1522 1520 1518 1516 1516 1514 1511 1511 1511 1512 1512 1511 1511 1510 1510 1510 1509 1505 1504 1501 1497 1486 1480 1479 1477 1474 1463 1459 1453 1453 1452 1449 1445 1444 1444
1553 1550 1547 1544 1541 1537 1534 1530 1526 1522 1519 1517 1515 1515 1511 1507 1508 1509 1509 1509 1510 1509 1509 1508 1508 1509 1508 1505 1500 1497 1495 1483 1474 1477 1474 1475 1450 1446 1450 1449 1445 1442 1440 1440 1440
1551 1548 1545 1541 1538 1534 1531 1527 1524 1519 1516 1514 1513 1513 1509 1505 1505 1506 1507 1507 1508 1508 1507 1507 1507 1507 1506 1500 1492 1493 1482 1479 1474 1475 1474 1472 1451 1440 1445 1443 1438 1435 1434 1434 1435
1548 1544 1541 1538 1534 1530 1527 1524 1520 1516 1514 1513 1510 1514 1507 1504 1502 1503 1504 1505 1506 1506 1507 1507 1507 1502 1499 1496 1485 1489 1482 1475 1476 1470 1470 1464 1450 1439 1437 1434 1430 1428 1427 1428 1429
1545 1541 1538 1534 1530 1526 1524 1521 1521 1517 1512 1509 1505 1501 1500 1501 1502 1502 1503 1504 1504 1506 1503 1505 1503 1493 1483 1487 1486 1486 1484 1477 1467 1465 1468 1454 1445 1435 1430 1427 1424 1423 1422 1422 1423
1541 1536 1532 1530 1525 1522 1520 1519 1519 1519 1509 1496 1494 1494 1497 1498 1498 1498 1501 1504 1503 1499 1502 1502 1492 1483 1489 1490 1490 1486 1482 1470 1464 1468 1468 1451 1440 1429 1429 1425 1423 1420 1418 1418 1420
1537 1532 1527 1524 1521 1518 1517 1517 1516 1515 1512 1493 1490 1491 1493 1495 1497 1496 1498 1498 1498 1497 1496 1491 1481 1486 1486 1484 1485 1479 1479 1469 1470 1466 1456 1458 1425 1426 1427 1426 1422 1418 1417 1417 1417
1533 1528 1523 1520 1518 1515 1515 1514 1513 1512 1508 1491 1492 1492 1493 1494 1495 1495 1496 1498 1496 1492 1493 1488 1484 1484 1482 1481 1479 1473 1473 1475 1472 1469 1461 1461 1441 1424 1423 1422 1421 1419 1417 1416 1415
1531 1526 1520 1516 1515 1513 1514 1512 1512 1513 1512 1493 1494 1494 1492 1495 1496 1494 1495 1496 1492 1489 1493 1477 1480 1481 1480 1474 1475 1468 1474 1473 1470 1467 1470 1456 1456 1420 1424 1419 1417 1417 1418 1417 1414
1529 1523 1519 1516 1513 1513 1511 1511 1512 1513 1508 1494 1493 1494 1494 1493 1493 1494 1495 1495 1493 1491 1487 1479 1482 1480 1474 1474 1474 1473 1470 1468 1470 1466 1463 1451 1453 1425 1420 1423 1418 1414 1416 1417 1416
1527 1522 1519 1516 1515 1513 1513 1513 1513 1507 1492 1498 1497 1494 1493 1490 1489 1491 1492 1490 1486 1485 1475 1472 1474 1476 1476 1474 1474 1473 1468 1461 1459 1460 1444 1456 1454 1425 1417 1418 1419 1418 1416 1416 1415
1526 1523 1520 1517 1514 1513 1514 1515 1513 1506 1504 1504 1499 1494 1491 1491 1489 1490 1489 1484 1488 1488 1481 1474 1469 1473 1473 1470 1465 1468 1465 1462 1464 1453 1447 1454 1445 1416 1416 1417 1419 1419 1418 1415 1414
1524 1521 1520 1517 1514 1514 1517 1514 1512 1516 1517 1510 1499 1493 1491 1493 1494 1488 1487 1493 1492 1491 1487 1475 1470 1472 1473 1471 1471 1471 1468 1467 1463 1466 1463 1439 1430 1416 1412 1416 1418 1417 1417 1416 1413
1523 1521 1520 1517 1514 1514 1515 1516 1520 1525 1521 1515 1506 1502 1498 1497 1496 1491 1485 1505 1501 1499 1495 1483 1479 1473 1472 1472 1472 1468 1468 1465 1465 1462 1454 1435 1434 1423 1419 1411 1414 1415 1415 1413 1411
1522 1521 1521 1516 1514 1514 1514 1522 1523 1525 1524 1519 1513 1508 1506 1506 1503 1495 1493 1510 1506 1499 1495 1490 1484 1472 1472 1466 1459 1467 1464 1465 1464 1458 1447 1439 1423 1410 1413 1416 1419 1418 1416 1413 1408
1523 1523 1522 1517 1518 1522 1524 1528 1528 1526 1525 1524 1520 1518 1516 1514 1505 1498 1500 1504 1509 1505 1502 1497 1489 1478 1466 1459 1465 1463 1457 1456 1455 1451 1451 1450 1428 1411 1414 1418 1419 1416 1414 1411 1407
1527 1528 1525 1519 1525 1529 1533 1532 1532 1529 1529 1527 1526 1527 1525 1521 1513 1507 1506 1510 1509 1508 1506 1501 1487 1477 1460 1463 1465 1462 1462 1461 1461 1459 1451 1447 1421 1413 1412 1415 1416 1418 1414 1409 1405
1530 1528 1530 1529 1534 1536 1537 1536 1533 1534 1534 1533 1531 1530 1528 1524 1521 1514 1512 1510 1509 1507 1504 1501 1488 1479 1468 1457 1463 1464 1459 1461 1463 1459 1447 1434 1425 1416 1411 1419 1419 1421 1416 1410 1404
1536 1543 1541 1540 1538 1540 1540 1540 1537 1536 1536 1535 1533 1534 1535 1529 1522 1518 1517 1515 1510 1505 1502 1501 1489 1482 1475 1470 1466 1462 1459 1459 1459 1454 1452 1423 1424 1424 1418 1428 1428 1421 1415 1408 1402
1544 1546 1545 1544 1545 1544 1541 1541 1541 1540 1540 1534 1534 1534 1533 1530 1527 1524 1521 1519 1513 1506 1502 1503 1493 1486 1477 1470 1466 1457 1457 1451 1443 1439 1435 1430 1415 1431 1434 1431 1427 1422 1416 1411 1404
1550 1549 1544 1544 1541 1541 1548 1545 1543 1543 1538 1537 1536 1533 1528 1526 1525 1522 1518 1512 1509 1507 1506 1506 1498 1488 1471 1468 1464 1450 1439 1434 1431 1429 1430 1425 1429 1439 1433 1431 1427 1423 1419 1414 1406
Wind_Speed
13 12 12 11 10 10 11 12 14 15 16 15 15 15 15 15 13 9 7 8 9 8 7 5 5 2 2 2 2 2 3 6 6 6 5 7 11 12 14 21 22 19 22 23 22
14 13 14 13 13 12 12 13 13 13 14 16 16 16 16 16 16 5 5 7 8 7 5 4 4 4 0 1 2 4 4 4 5 8 12 16 18 21 21 24 26 24 25 26 22
15 16 16 16 15 15 14 13 13 14 14 14 14 14 15 14 13 6 3 4 6 6 5 5 6 3 1 2 3 2 5 5 12 17 18 21 23 23 23 24 27 23 23 24 22
14 16 17 18 17 15 13 15 15 15 15 14 13 13 12 9 4 6 3 4 4 4 4 5 3 2 2 3 3 6 12 15 13 15 18 18 23 23 24 33 30 29 26 26 25
15 16 17 18 19 18 16 16 17 17 18 16 13 12 10 6 9 8 4 3 4 4 4 4 2 2 3 4 6 12 11 11 18 22 25 24 25 25 30 33 32 28 28 30 27
17 17 18 19 20 20 18 18 20 21 19 15 12 11 8 7 7 8 6 4 4 4 5 4 1 3 5 5 5 6 15 23 21 18 14 12 16 5 20 19 20 20 26 27 24
18 18 19 19 20 21 21 21 22 23 17 15 11 10 11 14 8 10 9 6 6 5 5 4 4 1 3 5 7 11 12 13 8 4 9 7 15 15 22 13 17 21 20 22 22
19 19 20 21 22 22 23 23 24 24 18 15 9 8 7 9 10 12 11 9 8 7 6 7 5 4 5 6 5 5 5 7 0 8 3 4 19 13 13 17 24 22 21 17 17
21 21 22 22 22 23 24 24 24 23 18 9 8 6 6 7 11 12 12 10 7 6 6 6 4 4 4 5 6 4 8 11 9 4 7 7 21 19 21 24 25 28 28 25 21
23 23 23 24 23 24 22 23 22 16 11 5 7 4 8 5 7 8 10 11 7 4 2 3 3 4 6 5 5 5 10 7 12 5 12 18 26 25 27 20 24 27 26 24 21
25 25 24 24 24 24 23 17 8 6 8 13 19 18 8 8 7 7 8 9 6 4 4 3 5 10 12 8 11 10 12 15 17 13 11 13 21 22 21 14 14 20 22 21 20
26 26 25 23 24 22 17 8 8 9 13 27 20 24 19 10 4 10 10 8 6 6 4 4 11 9 3 3 7 10 13 15 11 1 10 17 23 14 9 8 9 11 12 15 14
26 27 26 23 21 16 6 8 8 10 6 10 4 3 3 18 6 7 13 6 7 6 10 10 1 4 5 6 9 12 14 14 10 15 9 14 6 6 1 8 7 7 8 10 10
27 26 24 21 11 8 11 6 8 8 4 3 1 0 2 4 5 6 11 3 4 5 5 10 0 5 6 9 8 12 3 8 10 12 7 7 5 3 5 6 2 8 8 6 9
29 28 24 17 11 5 5 4 6 4 5 3 2 1 2 2 3 3 11 3 7 4 4 3 4 6 8 6 9 3 1 9 10 10 7 4 4 2 3 6 12 10 10 8 8
28 24 20 14 7 6 3 3 2 2 7 2 2 3 3 2 2 3 3 6 3 4 8 18 5 4 4 2 9 4 9 7 3 2 3 3 3 5 3 5 9 12 13 8 9
26 21 17 14 8 4 3 1 2 4 6 6 4 5 4 3 2 3 3 5 5 4 4 4 4 2 4 4 3 5 6 3 3 2 3 2 5 9 9 6 7 9 15 12 9
23 11 14 13 9 4 1 2 6 3 4 3 5 10 3 5 0 1 3 3 3 5 6 4 2 4 5 4 3 4 3 3 5 3 8 1 6 1 4 9 7 6 9 11 13
18 7 15 12 8 3 2 2 3 4 8 11 12 4 2 1 6 3 1 8 7 5 4 5 4 1 3 1 2 3 4 3 4 1 3 3 5 11 2 2 2 7 7 13 21
11 3 21 12 7 3 1 2 2 7 8 5 4 4 4 9 9 8 4 8 9 10 7 3 7 1 2 2 2 4 2 3 2 4 4 5 6 9 4 8 12 12 20 29 29
8 1 21 8 4 3 2 3 2 7 11 8 4 6 4 5 4 4 6 4 12 11 8 7 3 3 3 5 7 4 4 5 3 4 4 5 5 4 5 9 11 18 30 33 33
5 2 24 6 4 4 2 4 10 8 12 6 2 4 4 7 5 4 4 2 12 12 7 4 5 6 14 12 1 3 6 9 6 4 4 5 7 8 4 7 19 29 35 37 34
4 4 17 10 4 4 4 2 7 11 8 8 8 7 7 5 6 4 5 6 17 10 7 6 3 6 7 3 2 3 1 3 4 3 12 10 8 2 10 25 34 34 39 36 36
4 2 9 14 7 3 5 5 6 7 4 5 7 3 10 4 3 6 9 4 25 15 10 8 7 13 15 16 10 18 18 15 12 10 15 19 27 27 26 24 27 31 33 34 33
8 4 4 4 8 6 3 6 7 9 6 8 1 9 7 5 11 2 3 13 12 9 5 5 8 11 17 20 20 23 23 19 20 20 18 28 27 24 26 17 20 27 30 32 34
5 4 4 2 4 6 6 5 5 6 3 3 5 11 10 6 7 12 14 13 10 8 4 9 5 12 16 20 22 28 24 26 28 27 27 27 31 17 19 22 25 26 26 34 37
10 7 1 2 4 4 3 5 5 10 3 5 7 13 11 7 11 20 27 32 27 17 16 10 5 6 6 9 15 16 8 16 21 21 13 18 10 15 18 19 27 28 26 34 38
Wind_Direction
25 18 11 2 348 333 320 308 298 294 294 297 302 308 315 325 336 323 336 346 7 12 14 16 17 358 54 93 114 138 246 272 269 275 300 292 290 284 282 275 272 265 262 272 286
22 15 7 359 353 347 336 327 319 311 299 292 293 297 306 316 325 288 313 349 1 11 21 24 15 27 67 143 182 234 254 273 259 279 282 292 286 287 286 278 273 274 270 265 273
15 13 11 3 354 348 344 342 335 327 320 311 299 293 299 311 319 206 301 344 357 3 8 14 18 34 286 262 203 201 259 318 273 279 284 286 280 280 275 272 272 270 270 266 266
11 10 8 7 0 352 347 345 340 332 324 315 310 301 298 303 286 214 281 334 343 347 357 7 13 360 280 264 229 266 259 272 283 289 284 273 282 273 263 263 267 265 267 269 265
0 2 2 1 1 356 349 344 338 332 324 316 308 301 299 275 252 244 247 300 318 328 331 353 48 340 300 285 282 248 278 276 279 284 279 277 265 264 266 267 270 269 265 262 261
350 351 351 350 351 352 345 343 340 332 324 317 303 293 281 254 248 226 237 268 290 301 303 332 326 300 280 261 251 308 284 288 289 278 267 265 271 276 265 273 267 267 266 260 254
342 341 341 340 340 340 340 335 334 332 324 319 299 286 266 256 244 228 231 251 270 274 280 286 294 289 297 267 273 285 295 297 262 248 285 277 269 238 261 262 270 280 273 262 251
335 334 333 331 330 331 331 330 329 329 319 314 292 284 250 254 234 230 229 249 262 269 269 276 283 274 240 291 269 269 264 319 225 289 258 237 284 289 274 268 277 268 261 261 263
330 328 327 325 323 324 324 324 324 320 315 302 290 263 259 245 230 227 230 239 246 257 262 264 283 261 245 271 269 221 301 307 313 210 291 236 292 288 297 284 266 263 262 261 265
328 326 324 321 318 317 318 320 318 309 305 303 278 256 239 240 210 210 218 226 227 224 242 213 231 255 231 229 289 280 297 290 290 303 288 284 278 293 303 291 266 259 259 260 261
329 326 324 322 319 319 319 326 325 305 272 256 275 260 256 227 204 226 215 207 207 205 234 201 252 247 284 248 281 282 278 285 291 303 300 288 296 300 308 302 273 262 260 256 258
330 325 323 322 316 315 314 316 302 292 299 296 268 255 240 207 200 221 204 189 193 229 175 214 248 283 267 246 251 260 280 288 297 224 306 309 302 308 304 305 306 296 281 262 264
336 330 327 325 317 308 311 311 313 319 261 284 268 249 257 220 242 213 186 190 223 233 224 238 334 111 196 248 262 264 265 291 292 321 287 306 283 327 308 305 317 335 298 290 286
338 334 331 331 321 306 306 303 314 331 282 252 134 130 144 134 206 204 188 209 207 259 239 256 265 231 230 247 232 287 302 271 296 324 317 355 308 313 326 329 355 5 357 344 335
343 339 337 338 316 311 289 295 320 340 315 63 81 142 192 215 129 183 197 211 253 231 210 280 215 222 245 243 185 264 270 286 293 291 309 200 268 294 319 348 350 3 355 334 326
345 343 346 348 353 335 290 290 321 195 245 36 84 356 293 192 177 136 192 227 265 272 236 261 279 247 251 234 215 312 291 259 249 258 246 113 328 274 25 346 328 347 2 343 332
349 346 356 0 354 347 329 321 202 220 9 8 354 350 324 271 216 198 203 219 248 282 265 268 217 233 214 246 190 225 267 284 247 226 295 148 279 270 293 280 269 313 333 341 341
349 359 8 5 0 355 306 232 222 10 341 353 322 304 245 3 358 279 255 295 69 280 293 297 283 186 176 251 326 203 273 274 286 283 308 190 235 346 269 300 291 285 316 337 0
348 4 9 4 3 360 315 242 0 8 328 326 318 316 357 56 344 318 4 4 17 355 297 309 258 222 215 308 277 135 217 8 289 244 265 248 265 279 205 217 85 352 359 346 339
349 342 12 1 4 49 284 87 42 22 326 314 300 14 325 349 338 337 308 15 343 353 331 341 290 359 12 215 174 258 132 247 212 277 266 246 265 243 272 354 6 9 354 334 328
356 73 355 355 22 57 88 48 10 359 3 357 331 301 320 350 314 292 359 51 359 340 355 358 259 272 280 224 269 183 217 215 283 254 276 294 240 250 292 2 5 339 336 334 330
17 45 4 15 42 36 46 7 2 354 8 358 24 7 341 341 302 279 10 72 15 4 1 342 299 273 272 289 276 260 264 240 245 218 242 289 273 328 42 16 336 335 331 327 325
33 7 23 53 50 24 360 20 28 10 18 10 18 20 360 320 306 344 335 146 21 3 359 337 281 303 285 142 152 231 184 269 312 300 262 263 257 187 288 325 324 329 324 323 323
17 13 15 51 64 30 9 9 357 13 45 18 24 36 353 332 327 310 315 329 333 320 308 233 239 250 262 279 300 280 278 281 282 272 279 260 281 286 296 317 326 327 327 328 328
33 55 17 2 30 29 8 1 1 6 1 12 129 36 4 302 312 282 319 325 318 303 351 6 274 282 274 275 273 268 271 267 255 255 255 272 270 286 301 337 326 323 340 340 338
51 10 357 18 339 354 9 33 357 345 299 2 345 336 320 270 288 297 304 301 274 298 320 346 281 311 285 272 268 271 269 263 256 256 255 262 270 292 327 328 332 339 344 340 337
37 10 16 14 7 343 17 359 342 340 280 290 318 318 303 300 297 287 278 271 259 266 281 287 282 301 268 353 318 286 277 265 257 251 271 261 319 339 332 331 322 326 343 338 335